,,Stat6,,Stat2,,Stat8,,Stat9,,Stat10,,Wind1,,Wind1,
time,status,PA1M_AVG,status,PR1M_SUM,status,RH1M_AVG,status,SR1M_AVG,status,TA1M_AVG,status,W1dAve1m,status,W1sAve1m,
2003-11-09, 00:00:00,VALID,917.853,VALID,0,VALID,100,VALID,-0.0169808,VALID,19.9074,VALID,356,VALID,0.590892,
2003-11-09, 00:01:00,VALID,917.838,VALID,0,VALID,100,VALID,0,VALID,19.94,VALID,4,VALID,0.448918,
2003-11-09, 00:02:00,VALID,917.822,VALID,0,VALID,100,VALID,-0.0849042,VALID,19.9367,VALID,4,VALID,0.50093,
2003-11-09, 00:03:00,VALID,917.813,VALID,0,VALID,100,VALID,-0.0169808,VALID,19.9397,VALID,4,VALID,0.462612,
2003-11-09, 00:04:00,VALID,917.815,VALID,0,VALID,100,VALID,-0.0339617,VALID,19.9429,VALID,4,VALID,0.313033,
2003-11-09, 00:05:00,VALID,917.806,VALID,0,VALID,100,VALID,-0.0169808,VALID,19.9429,VALID,4,VALID,0.407158,
2003-11-09, 00:06:00,VALID,917.791,VALID,0,VALID,100,VALID,-0.0339617,VALID,19.9203,VALID,4,VALID,0.11849,
2003-11-09, 00:07:00,VALID,917.77,VALID,0,VALID,100,VALID,0,VALID,19.9211,VALID,4,VALID,0.107515,
2003-11-09, 00:08:00,VALID,917.754,VALID,0,VALID,100,VALID,-0.0169808,VALID,19.9139,VALID,4,VALID,0,
2003-11-09, 00:09:00,VALID,917.75,VALID,0,VALID,100,VALID,-0.0509425,VALID,19.9176,VALID,4,VALID,0,
2003-11-09, 00:10:00,VALID,917.729,VALID,0,VALID,100,VALID,-0.0339617,VALID,19.9042,VALID,4,VALID,0.000952744,
2003-11-09, 00:11:00,VALID,917.695,VALID,0,VALID,100,VALID,-0.0169808,VALID,19.8816,VALID,4,VALID,0.0361555,
2003-11-09, 00:12:00,VALID,917.698,VALID,0,VALID,100,VALID,-0.0169808,VALID,19.8754,VALID,4,VALID,0.000181686,
2003-11-09, 00:13:00,VALID,917.684,VALID,0,VALID,100,VALID,-0.0169808,VALID,19.8719,VALID,4,VALID,0.0099734,
2003-11-09, 00:14:00,VALID,917.67,VALID,0,VALID,100,VALID,-0.0509425,VALID,19.8751,VALID,4,VALID,0.000952744,
2003-11-09, 00:15:00,VALID,917.643,VALID,0,VALID,100,VALID,-0.0339617,VALID,19.8818,VALID,4,VALID,0.151562,
2003-11-09, 00:16:00,VALID,917.625,VALID,0,VALID,100,VALID,-0.0849042,VALID,19.8982,VALID,4,VALID,0.178544,
2003-11-09, 00:17:00,VALID,917.604,VALID,0,VALID,100,VALID,-0.0339617,VALID,19.8853,VALID,4,VALID,0.353693,
2003-11-09, 00:18:00,VALID,917.589,VALID,0,VALID,100,VALID,0,VALID,19.8719,VALID,4,VALID,0.637649,
2003-11-09, 00:19:00,VALID,917.582,VALID,0,VALID,100,VALID,-0.0169808,VALID,19.8625,VALID,4,VALID,0.728087,
2003-11-09, 00:20:00,VALID,917.556,VALID,0,VALID,100,VALID,-0.0509425,VALID,19.8565,VALID,4,VALID,0.683239,
2003-11-09, 00:21:00,VALID,917.542,VALID,0,VALID,100,VALID,-0.0339617,VALID,19.8431,VALID,4,VALID,0.75093,
2003-11-09, 00:22:00,VALID,917.533,VALID,0,VALID,100,VALID,-0.0169808,VALID,19.8431,VALID,4,VALID,0.492569,
2003-11-09, 00:23:00,VALID,917.527,VALID,0,VALID,100,VALID,-0.0169808,VALID,19.8393,VALID,4,VALID,0.235283,
2003-11-09, 00:24:00,VALID,917.526,VALID,0,VALID,100,VALID,-0.0509425,VALID,19.8269,VALID,4,VALID,0.0930233,
2003-11-09, 00:25:00,VALID,917.521,VALID,0,VALID,100,VALID,-0.0339617,VALID,19.8528,VALID,4,VALID,0.204055,
2003-11-09, 00:26:00,VALID,917.494,VALID,0,VALID,100,VALID,-0.0339617,VALID,19.8818,VALID,4,VALID,0.396701,
2003-11-09, 00:27:00,VALID,917.482,VALID,0.2,VALID,100,VALID,-0.0169808,VALID,19.8821,VALID,4,VALID,0.265439,
2003-11-09, 00:28:00,VALID,917.467,VALID,0,VALID,100,VALID,-0.0509425,VALID,19.8915,VALID,4,VALID,0.0316406,
2003-11-09, 00:29:00,VALID,917.442,VALID,0,VALID,100,VALID,-0.0169808,VALID,19.8851,VALID,4,VALID,0,
2003-11-09, 00:30:00,VALID,917.426,VALID,0,VALID,100,VALID,-0.0339617,VALID,19.9042,VALID,4,VALID,0,
2003-11-09, 00:31:00,VALID,917.405,VALID,0,VALID,100,VALID,-0.0169808,VALID,19.9139,VALID,4,VALID,0,
2003-11-09, 00:32:00,VALID,917.398,VALID,0,VALID,100,VALID,-0.0169808,VALID,19.9174,VALID,4,VALID,0,
2003-11-09, 00:33:00,VALID,917.39,VALID,0,VALID,100,VALID,-0.0169808,VALID,19.9213,VALID,4,VALID,0.0245028,
2003-11-09, 00:34:00,VALID,917.37,VALID,0,VALID,100,VALID,-0.0169808,VALID,19.9176,VALID,4,VALID,0.170945,
2003-11-09, 00:35:00,VALID,917.363,VALID,0,VALID,100,VALID,0,VALID,19.9082,VALID,4,VALID,0.204215,
2003-11-09, 00:36:00,VALID,917.343,VALID,0,VALID,100,VALID,-0.0679233,VALID,19.8784,VALID,4,VALID,0.235119,
2003-11-09, 00:37:00,VALID,917.322,VALID,0,VALID,100,VALID,-0.0339617,VALID,19.8985,VALID,4,VALID,0.374814,
2003-11-09, 00:38:00,VALID,917.298,VALID,0,VALID,100,VALID,-0.0339617,VALID,19.895,VALID,4,VALID,0.458899,
2003-11-09, 00:39:00,VALID,917.253,VALID,0,VALID,100,VALID,-0.0339617,VALID,19.8885,VALID,4,VALID,0.388626,
2003-11-09, 00:40:00,VALID,917.237,VALID,0,VALID,100,VALID,-0.0169808,VALID,19.9044,VALID,4,VALID,0.0927083,
2003-11-09, 00:41:00,VALID,917.222,VALID,0,VALID,100,VALID,-0.0509425,VALID,19.8945,VALID,4,VALID,0.0333984,
2003-11-09, 00:42:00,VALID,917.209,VALID,0,VALID,100,VALID,-0.0339617,VALID,19.8823,VALID,4,VALID,0.0630208,
2003-11-09, 00:43:00,VALID,917.172,VALID,0,VALID,100,VALID,-0.0509425,VALID,19.8562,VALID,4,VALID,0.00486111,
2003-11-09, 00:44:00,VALID,917.16,VALID,0,VALID,100,VALID,-0.0339617,VALID,19.8495,VALID,4,VALID,0.148624,
2003-11-09, 00:45:00,VALID,917.143,VALID,0.2,VALID,100,VALID,0,VALID,19.8366,VALID,4,VALID,0.19478,
2003-11-09, 00:46:00,VALID,917.13,VALID,0,VALID,100,VALID,-0.0679233,VALID,19.8267,VALID,4,VALID,0.120908,
2003-11-09, 00:47:00,VALID,917.112,VALID,0,VALID,100,VALID,-0.0509425,VALID,19.8466,VALID,4,VALID,0.282948,
2003-11-09, 00:48:00,VALID,917.099,VALID,0,VALID,100,VALID,-0.0509425,VALID,19.8592,VALID,4,VALID,0.252287,
2003-11-09, 00:49:00,VALID,917.08,VALID,0,VALID,100,VALID,-0.0509425,VALID,19.8818,VALID,4,VALID,0,
2003-11-09, 00:50:00,VALID,917.055,VALID,0,VALID,100,VALID,-0.0169808,VALID,19.8719,VALID,4,VALID,0,
2003-11-09, 00:51:00,VALID,917.048,VALID,0,VALID,100,VALID,0.0339617,VALID,19.8784,VALID,4,VALID,0,
2003-11-09, 00:52:00,VALID,917.043,VALID,0,VALID,100,VALID,0.0169808,VALID,19.8789,VALID,4,VALID,0.00926599,
2003-11-09, 00:53:00,VALID,917.024,VALID,0,VALID,100,VALID,0.0169808,VALID,19.8784,VALID,4,VALID,0.0163872,
2003-11-09, 00:54:00,VALID,917.014,VALID,0,VALID,100,VALID,0.0169808,VALID,19.8684,VALID,4,VALID,0.341442,
2003-11-09, 00:55:00,VALID,917.014,VALID,0,VALID,100,VALID,0,VALID,19.8945,VALID,4,VALID,0.490552,
2003-11-09, 00:56:00,VALID,916.998,VALID,0,VALID,100,VALID,0.0339617,VALID,19.9042,VALID,4,VALID,0.379179,
2003-11-09, 00:57:00,VALID,916.985,VALID,0,VALID,100,VALID,-0.0169808,VALID,19.9106,VALID,4,VALID,0.444922,
2003-11-09, 00:58:00,VALID,916.989,VALID,0,VALID,100,VALID,0,VALID,19.9241,VALID,6,VALID,0.573879,
2003-11-09, 00:59:00,VALID,916.963,VALID,0,VALID,100,VALID,0,VALID,19.94,VALID,11,VALID,0.780078,
2003-11-09, 01:00:00,VALID,916.955,VALID,0,VALID,100,VALID,0.0169808,VALID,19.9497,VALID,13,VALID,0.735978,
2003-11-09, 01:01:00,VALID,916.938,VALID,0,VALID,100,VALID,0.0339617,VALID,19.9328,VALID,13,VALID,0.365916,
2003-11-09, 01:02:00,VALID,916.939,VALID,0,VALID,100,VALID,0.0509425,VALID,19.9392,VALID,13,VALID,0.120236,
2003-11-09, 01:03:00,VALID,916.93,VALID,0,VALID,100,VALID,0.0169808,VALID,19.9236,VALID,13,VALID,0,
2003-11-09, 01:04:00,VALID,916.928,VALID,0,VALID,100,VALID,0.0339617,VALID,19.9171,VALID,13,VALID,0,
2003-11-09, 01:05:00,VALID,916.912,VALID,0,VALID,100,VALID,0.0169808,VALID,19.9236,VALID,13,VALID,0,
2003-11-09, 01:06:00,VALID,916.903,VALID,0,VALID,100,VALID,0.0339617,VALID,19.937,VALID,13,VALID,0,
2003-11-09, 01:07:00,VALID,916.906,VALID,0,VALID,100,VALID,0,VALID,19.9432,VALID,13,VALID,0,
2003-11-09, 01:08:00,VALID,916.905,VALID,0,VALID,100,VALID,0.0169808,VALID,19.9554,VALID,13,VALID,0,
2003-11-09, 01:09:00,VALID,916.9,VALID,0,VALID,100,VALID,0.0169808,VALID,19.9785,VALID,13,VALID,0,
2003-11-09, 01:10:00,VALID,916.903,VALID,0,VALID,100,VALID,0,VALID,19.9817,VALID,13,VALID,0,
2003-11-09, 01:11:00,VALID,916.888,VALID,0,VALID,100,VALID,0.0169808,VALID,19.978,VALID,13,VALID,0.0232558,
2003-11-09, 01:12:00,VALID,916.881,VALID,0,VALID,100,VALID,0,VALID,20.0016,VALID,13,VALID,0.0399926,
2003-11-09, 01:13:00,VALID,916.873,VALID,0,VALID,100,VALID,0,VALID,20.02,VALID,13,VALID,0.0416016,
2003-11-09, 01:14:00,VALID,916.862,VALID,0,VALID,100,VALID,0,VALID,20.0401,VALID,13,VALID,0.0928199,
2003-11-09, 01:15:00,VALID,916.862,VALID,0,VALID,100,VALID,0.0339617,VALID,20.0396,VALID,13,VALID,0.17702,
2003-11-09, 01:16:00,VALID,916.856,VALID,0,VALID,100,VALID,0.0169808,VALID,20.0438,VALID,13,VALID,0,
2003-11-09, 01:17:00,VALID,916.841,VALID,0,VALID,100,VALID,0.0169808,VALID,20.0267,VALID,13,VALID,0.000868056,
2003-11-09, 01:18:00,VALID,916.858,VALID,0,VALID,100,VALID,0.0169808,VALID,20.0366,VALID,13,VALID,0.125,
2003-11-09, 01:19:00,VALID,916.84,VALID,0,VALID,100,VALID,0.0169808,VALID,20.0398,VALID,13,VALID,0.299851,
2003-11-09, 01:20:00,VALID,916.839,VALID,0,VALID,100,VALID,0,VALID,20.0398,VALID,13,VALID,0.188502,
2003-11-09, 01:21:00,VALID,916.827,VALID,0,VALID,100,VALID,0.0339617,VALID,20.014,VALID,13,VALID,0.273251,
2003-11-09, 01:22:00,VALID,916.81,VALID,0,VALID,100,VALID,0.0339617,VALID,20.0172,VALID,13,VALID,0.406613,
2003-11-09, 01:23:00,VALID,916.8,VALID,0,VALID,100,VALID,0,VALID,20.0272,VALID,13,VALID,0.560138,
2003-11-09, 01:24:00,VALID,916.772,VALID,0.2,VALID,100,VALID,0,VALID,20.0108,VALID,13,VALID,0.629724,
2003-11-09, 01:25:00,VALID,916.762,VALID,0,VALID,100,VALID,0.0339617,VALID,20.0205,VALID,10,VALID,0.436141,
2003-11-09, 01:26:00,VALID,916.75,VALID,0,VALID,100,VALID,-0.0169808,VALID,19.9683,VALID,7,VALID,0.376776,
2003-11-09, 01:27:00,VALID,916.731,VALID,0.2,VALID,100,VALID,0.0169808,VALID,19.9556,VALID,7,VALID,0.181868,
2003-11-09, 01:28:00,VALID,916.726,VALID,0,VALID,100,VALID,0,VALID,19.9395,VALID,7,VALID,0.0109012,
2003-11-09, 01:29:00,VALID,916.709,VALID,0,VALID,100,VALID,0.0339617,VALID,19.9236,VALID,7,VALID,0,
2003-11-09, 01:30:00,VALID,916.706,VALID,0,VALID,100,VALID,0.0169808,VALID,19.9268,VALID,7,VALID,0,
2003-11-09, 01:31:00,VALID,916.689,VALID,0,VALID,100,VALID,0.0169808,VALID,19.9106,VALID,7,VALID,0,
2003-11-09, 01:32:00,VALID,916.672,VALID,0,VALID,100,VALID,0,VALID,19.8846,VALID,7,VALID,0.0917039,
2003-11-09, 01:33:00,VALID,916.642,VALID,0,VALID,100,VALID,0,VALID,19.8784,VALID,7,VALID,0.0053267,
2003-11-09, 01:34:00,VALID,916.629,VALID,0,VALID,100,VALID,0,VALID,19.8716,VALID,7,VALID,0,
2003-11-09, 01:35:00,VALID,916.628,VALID,0,VALID,100,VALID,0.0169808,VALID,19.8749,VALID,7,VALID,0,
2003-11-09, 01:36:00,VALID,916.604,VALID,0,VALID,100,VALID,0.0339617,VALID,19.9044,VALID,7,VALID,0,
2003-11-09, 01:37:00,VALID,916.594,VALID,0,VALID,100,VALID,0.0339617,VALID,19.9141,VALID,7,VALID,0.018532,
2003-11-09, 01:38:00,VALID,916.584,VALID,0,VALID,100,VALID,0,VALID,19.9429,VALID,7,VALID,0.0359003,
2003-11-09, 01:39:00,VALID,916.574,VALID,0,VALID,100,VALID,0,VALID,19.9556,VALID,7,VALID,0.0359003,
2003-11-09, 01:40:00,VALID,916.574,VALID,0,VALID,100,VALID,0.0169808,VALID,19.9882,VALID,7,VALID,0.336632,
2003-11-09, 01:41:00,VALID,916.573,VALID,0,VALID,100,VALID,0.0169808,VALID,19.9683,VALID,7,VALID,0.306332,
2003-11-09, 01:42:00,VALID,916.578,VALID,0,VALID,100,VALID,0.0679233,VALID,19.968,VALID,7,VALID,0.0742188,
2003-11-09, 01:43:00,VALID,916.565,VALID,0,VALID,100,VALID,0.0169808,VALID,19.975,VALID,7,VALID,0,
2003-11-09, 01:44:00,VALID,916.561,VALID,0,VALID,100,VALID,0,VALID,19.9427,VALID,350,VALID,0.0850291,
2003-11-09, 01:45:00,VALID,916.56,VALID,0,VALID,100,VALID,0,VALID,19.9226,VALID,263,VALID,0.171113,
2003-11-09, 01:46:00,VALID,916.531,VALID,0,VALID,100,VALID,0.0169808,VALID,19.93,VALID,240,VALID,0.311435,
2003-11-09, 01:47:00,VALID,916.533,VALID,0.2,VALID,100,VALID,0.0339617,VALID,19.9039,VALID,208,VALID,0.335405,
2003-11-09, 01:48:00,VALID,916.53,VALID,0,VALID,100,VALID,0.0339617,VALID,19.8781,VALID,208,VALID,0.0953852,
2003-11-09, 01:49:00,VALID,916.527,VALID,0,VALID,100,VALID,0.0169808,VALID,19.8585,VALID,217,VALID,0.40904,
2003-11-09, 01:50:00,VALID,916.523,VALID,0.2,VALID,100,VALID,-0.0339617,VALID,19.8403,VALID,223,VALID,0.0457589,
2003-11-09, 01:51:00,VALID,916.511,VALID,0,VALID,100,VALID,-0.0849042,VALID,19.8433,VALID,223,VALID,0,
2003-11-09, 01:52:00,VALID,916.503,VALID,0,VALID,100,VALID,-0.0849042,VALID,19.8637,VALID,223,VALID,0,
2003-11-09, 01:53:00,VALID,916.51,VALID,0.2,VALID,100,VALID,-0.0679233,VALID,19.8669,VALID,223,VALID,0,
2003-11-09, 01:54:00,VALID,916.512,VALID,0,VALID,100,VALID,-0.0679233,VALID,19.8761,VALID,223,VALID,0.0025436,
2003-11-09, 01:55:00,VALID,916.5,VALID,0,VALID,100,VALID,-0.0679233,VALID,19.8637,VALID,223,VALID,0.0182292,
2003-11-09, 01:56:00,VALID,916.524,VALID,0,VALID,100,VALID,-0.0849042,VALID,19.8572,VALID,223,VALID,0,
2003-11-09, 01:57:00,VALID,916.517,VALID,0,VALID,100,VALID,-0.0679233,VALID,19.854,VALID,223,VALID,0,
2003-11-09, 01:58:00,VALID,916.516,VALID,0,VALID,100,VALID,-0.0849042,VALID,19.8476,VALID,223,VALID,0,
2003-11-09, 01:59:00,VALID,916.513,VALID,0,VALID,100,VALID,-0.0849042,VALID,19.8635,VALID,223,VALID,0.15625,
2003-11-09, 02:00:00,VALID,916.507,VALID,0.2,VALID,100,VALID,-0.0849042,VALID,19.89,VALID,289,VALID,0.379002,
2003-11-09, 02:01:00,VALID,916.491,VALID,0,VALID,100,VALID,-0.0849042,VALID,19.8958,VALID,359,VALID,0.515439,
2003-11-09, 02:02:00,VALID,916.471,VALID,0,VALID,100,VALID,-0.0849042,VALID,19.8823,VALID,359,VALID,0.322129,
2003-11-09, 02:03:00,VALID,916.46,VALID,0,VALID,100,VALID,-0.0849042,VALID,19.8441,VALID,338,VALID,0.449826,
2003-11-09, 02:04:00,VALID,916.448,VALID,0.2,VALID,100,VALID,-0.101885,VALID,19.8217,VALID,296,VALID,0.464666,
2003-11-09, 02:05:00,VALID,916.433,VALID,0.2,VALID,100,VALID,-0.0169808,VALID,19.7912,VALID,292,VALID,0.30692,
2003-11-09, 02:06:00,VALID,916.427,VALID,0,VALID,100,VALID,0.0169808,VALID,19.8234,VALID,359,VALID,0.451219,
2003-11-09, 02:07:00,VALID,916.427,VALID,0.2,VALID,100,VALID,0.0509425,VALID,19.8331,VALID,23,VALID,0.464666,
2003-11-09, 02:08:00,VALID,916.415,VALID,0,VALID,100,VALID,0,VALID,19.8461,VALID,21,VALID,0.292225,
2003-11-09, 02:09:00,VALID,916.412,VALID,0.2,VALID,100,VALID,0.0169808,VALID,19.8625,VALID,21,VALID,0.0979288,
2003-11-09, 02:10:00,VALID,916.405,VALID,0,VALID,100,VALID,0,VALID,19.8552,VALID,21,VALID,0.201601,
2003-11-09, 02:11:00,VALID,916.405,VALID,0.2,VALID,100,VALID,0.0169808,VALID,19.8615,VALID,21,VALID,0.163881,
2003-11-09, 02:12:00,VALID,916.397,VALID,0,VALID,100,VALID,0,VALID,19.8848,VALID,21,VALID,0.0421512,
2003-11-09, 02:13:00,VALID,916.382,VALID,0,VALID,100,VALID,0,VALID,19.8813,VALID,21,VALID,0.5712,
2003-11-09, 02:14:00,VALID,916.387,VALID,0,VALID,100,VALID,0,VALID,19.8716,VALID,25,VALID,0.741616,
2003-11-09, 02:15:00,VALID,916.375,VALID,0.2,VALID,100,VALID,0,VALID,19.8913,VALID,28,VALID,0.819196,
2003-11-09, 02:16:00,VALID,916.366,VALID,0,VALID,100,VALID,0,VALID,19.9139,VALID,30,VALID,0.698219,
2003-11-09, 02:17:00,VALID,916.354,VALID,0,VALID,100,VALID,0,VALID,19.9298,VALID,27,VALID,0.829613,
2003-11-09, 02:18:00,VALID,916.332,VALID,0,VALID,100,VALID,0.0169808,VALID,19.9459,VALID,23,VALID,0.661014,
2003-11-09, 02:19:00,VALID,916.321,VALID,0,VALID,100,VALID,0.0169808,VALID,19.9559,VALID,27,VALID,0.405717,
2003-11-09, 02:20:00,VALID,916.316,VALID,0,VALID,100,VALID,-0.0679233,VALID,19.9698,VALID,28,VALID,0.03125,
2003-11-09, 02:21:00,VALID,916.3,VALID,0.2,VALID,100,VALID,-0.0849042,VALID,19.9666,VALID,28,VALID,0,
2003-11-09, 02:22:00,VALID,916.291,VALID,0,VALID,100,VALID,-0.0849042,VALID,19.97,VALID,28,VALID,0,
2003-11-09, 02:23:00,VALID,916.282,VALID,0,VALID,100,VALID,-0.0679233,VALID,19.9539,VALID,28,VALID,0,
2003-11-09, 02:24:00,VALID,916.289,VALID,0,VALID,100,VALID,-0.0849042,VALID,19.9218,VALID,33,VALID,0.42309,
2003-11-09, 02:25:00,VALID,916.261,VALID,0,VALID,100,VALID,-0.101885,VALID,19.9119,VALID,46,VALID,0.846168,
2003-11-09, 02:26:00,VALID,916.262,VALID,0,VALID,100,VALID,-0.0509425,VALID,19.9025,VALID,55,VALID,0.521391,
2003-11-09, 02:27:00,VALID,916.242,VALID,0,VALID,100,VALID,-0.0849042,VALID,19.8992,VALID,55,VALID,0.221839,
2003-11-09, 02:28:00,VALID,916.217,VALID,0,VALID,100,VALID,-0.0849042,VALID,19.8731,VALID,55,VALID,0,
2003-11-09, 02:29:00,VALID,916.205,VALID,0,VALID,100,VALID,-0.101885,VALID,19.8903,VALID,55,VALID,0,
2003-11-09, 02:30:00,VALID,916.189,VALID,0.2,VALID,100,VALID,-0.101885,VALID,19.9032,VALID,55,VALID,0,
2003-11-09, 02:31:00,VALID,916.17,VALID,0,VALID,100,VALID,-0.101885,VALID,19.9059,VALID,55,VALID,0.053234,
2003-11-09, 02:32:00,VALID,916.15,VALID,0,VALID,100,VALID,-0.0849042,VALID,19.9022,VALID,55,VALID,0.0207698,
2003-11-09, 02:33:00,VALID,916.127,VALID,0,VALID,100,VALID,-0.101885,VALID,19.8794,VALID,55,VALID,0,
2003-11-09, 02:34:00,VALID,916.11,VALID,0,VALID,100,VALID,-0.101885,VALID,19.8868,VALID,55,VALID,0,
2003-11-09, 02:35:00,VALID,916.076,VALID,0.2,VALID,100,VALID,-0.0339617,VALID,19.892,VALID,55,VALID,0,
2003-11-09, 02:36:00,VALID,916.051,VALID,0,VALID,100,VALID,0,VALID,19.8885,VALID,55,VALID,0,
2003-11-09, 02:37:00,VALID,916.036,VALID,0,VALID,100,VALID,0,VALID,19.8751,VALID,55,VALID,0,
2003-11-09, 02:38:00,VALID,916.021,VALID,0,VALID,100,VALID,0,VALID,19.8781,VALID,55,VALID,0,
2003-11-09, 02:39:00,VALID,916.004,VALID,0,VALID,100,VALID,0,VALID,19.8818,VALID,55,VALID,0.251674,
2003-11-09, 02:40:00,VALID,915.995,VALID,0,VALID,100,VALID,0,VALID,19.8751,VALID,54,VALID,0.377096,
2003-11-09, 02:41:00,VALID,915.987,VALID,0,VALID,100,VALID,0.0339617,VALID,19.8528,VALID,11,VALID,0.406436,
2003-11-09, 02:42:00,VALID,915.988,VALID,0,VALID,100,VALID,0,VALID,19.817,VALID,252,VALID,0.293255,
2003-11-09, 02:43:00,VALID,915.981,VALID,0,VALID,100,VALID,0,VALID,19.7909,VALID,252,VALID,0,
2003-11-09, 02:44:00,VALID,915.985,VALID,0,VALID,100,VALID,0.0169808,VALID,19.7775,VALID,252,VALID,0,
2003-11-09, 02:45:00,VALID,915.98,VALID,0.2,VALID,100,VALID,0.0169808,VALID,19.778,VALID,252,VALID,0,
2003-11-09, 02:46:00,VALID,915.977,VALID,0,VALID,100,VALID,0,VALID,19.7909,VALID,252,VALID,0.0336682,
2003-11-09, 02:47:00,VALID,915.976,VALID,0,VALID,100,VALID,0.0169808,VALID,19.821,VALID,252,VALID,0,
2003-11-09, 02:48:00,VALID,915.978,VALID,0.2,VALID,100,VALID,0,VALID,19.8269,VALID,252,VALID,0,
2003-11-09, 02:49:00,VALID,915.965,VALID,0,VALID,100,VALID,0.0169808,VALID,19.8234,VALID,252,VALID,0,
2003-11-09, 02:50:00,VALID,915.968,VALID,0,VALID,100,VALID,0,VALID,19.8207,VALID,252,VALID,0,
2003-11-09, 02:51:00,VALID,915.969,VALID,0,VALID,100,VALID,0,VALID,19.8108,VALID,252,VALID,0,
2003-11-09, 02:52:00,VALID,915.976,VALID,0.2,VALID,100,VALID,-0.0169808,VALID,19.8242,VALID,252,VALID,0,
2003-11-09, 02:53:00,VALID,915.962,VALID,0,VALID,100,VALID,-0.0169808,VALID,19.821,VALID,252,VALID,0,
2003-11-09, 02:54:00,VALID,915.966,VALID,0,VALID,100,VALID,0,VALID,19.8041,VALID,252,VALID,0,
2003-11-09, 02:55:00,VALID,915.966,VALID,0.2,VALID,100,VALID,0,VALID,19.8234,VALID,252,VALID,0,
2003-11-09, 02:56:00,VALID,915.983,VALID,0,VALID,100,VALID,0,VALID,19.8272,VALID,252,VALID,0,
2003-11-09, 02:57:00,VALID,915.993,VALID,0,VALID,100,VALID,0,VALID,19.7718,VALID,252,VALID,0,
2003-11-09, 02:58:00,VALID,915.989,VALID,0.2,VALID,100,VALID,0,VALID,19.7526,VALID,252,VALID,0,
2003-11-09, 02:59:00,VALID,915.999,VALID,0,VALID,100,VALID,0,VALID,19.7529,VALID,252,VALID,0,
2003-11-09, 03:00:00,VALID,915.994,VALID,0,VALID,100,VALID,0,VALID,19.7204,VALID,252,VALID,0,
2003-11-09, 03:01:00,VALID,916.01,VALID,0,VALID,100,VALID,0.0339617,VALID,19.7199,VALID,252,VALID,0,
2003-11-09, 03:02:00,VALID,916.009,VALID,0,VALID,100,VALID,0.0509425,VALID,19.733,VALID,252,VALID,0,
2003-11-09, 03:03:00,VALID,915.991,VALID,0,VALID,100,VALID,0,VALID,19.74,VALID,252,VALID,0,
2003-11-09, 03:04:00,VALID,916.004,VALID,0,VALID,100,VALID,0,VALID,19.7298,VALID,252,VALID,0,
2003-11-09, 03:05:00,VALID,915.992,VALID,0.2,VALID,100,VALID,-0.0169808,VALID,19.7171,VALID,252,VALID,0,
2003-11-09, 03:06:00,VALID,915.987,VALID,0,VALID,100,VALID,0.0169808,VALID,19.74,VALID,252,VALID,0,
2003-11-09, 03:07:00,VALID,915.97,VALID,0,VALID,100,VALID,0,VALID,19.7526,VALID,252,VALID,0,
2003-11-09, 03:08:00,VALID,915.963,VALID,0,VALID,100,VALID,0.0169808,VALID,19.7556,VALID,252,VALID,0.0383185,
2003-11-09, 03:09:00,VALID,915.94,VALID,0,VALID,100,VALID,0,VALID,19.7335,VALID,252,VALID,0.165206,
2003-11-09, 03:10:00,VALID,915.917,VALID,0,VALID,100,VALID,0,VALID,19.7199,VALID,232,VALID,0.325347,
2003-11-09, 03:11:00,VALID,915.902,VALID,0,VALID,100,VALID,0,VALID,19.7104,VALID,164,VALID,0.438227,
2003-11-09, 03:12:00,VALID,915.882,VALID,0,VALID,100,VALID,0,VALID,19.701,VALID,160,VALID,0.195871,
2003-11-09, 03:13:00,VALID,915.863,VALID,0,VALID,100,VALID,-0.0169808,VALID,19.7169,VALID,160,VALID,0.0298828,
2003-11-09, 03:14:00,VALID,915.862,VALID,0,VALID,100,VALID,0,VALID,19.7201,VALID,160,VALID,0.250888,
2003-11-09, 03:15:00,VALID,915.847,VALID,0,VALID,100,VALID,0.0339617,VALID,19.7166,VALID,162,VALID,0.297965,
2003-11-09, 03:16:00,VALID,915.836,VALID,0,VALID,100,VALID,0,VALID,19.7007,VALID,163,VALID,0.0966082,
2003-11-09, 03:17:00,VALID,915.83,VALID,0,VALID,100,VALID,0,VALID,19.6908,VALID,163,VALID,0.189317,
2003-11-09, 03:18:00,VALID,915.821,VALID,0,VALID,100,VALID,0.0169808,VALID,19.6746,VALID,163,VALID,0.0464939,
2003-11-09, 03:19:00,VALID,915.828,VALID,0,VALID,100,VALID,0,VALID,19.6846,VALID,163,VALID,0.0628811,
2003-11-09, 03:20:00,VALID,915.821,VALID,0,VALID,100,VALID,-0.0169808,VALID,19.6811,VALID,163,VALID,0.202172,
2003-11-09, 03:21:00,VALID,915.808,VALID,0,VALID,100,VALID,0.0339617,VALID,19.6905,VALID,178,VALID,0.29306,
2003-11-09, 03:22:00,VALID,915.798,VALID,0,VALID,100,VALID,0.0169808,VALID,19.694,VALID,187,VALID,0.165153,
2003-11-09, 03:23:00,VALID,915.794,VALID,0,VALID,100,VALID,0,VALID,19.6878,VALID,189,VALID,0.31936,
2003-11-09, 03:24:00,VALID,915.793,VALID,0,VALID,100,VALID,0.0169808,VALID,19.6846,VALID,203,VALID,0.297057,
2003-11-09, 03:25:00,VALID,915.796,VALID,0,VALID,100,VALID,0.0169808,VALID,19.7037,VALID,205,VALID,0.429501,
2003-11-09, 03:26:00,VALID,915.812,VALID,0,VALID,100,VALID,0.0169808,VALID,19.7171,VALID,215,VALID,0.258413,
2003-11-09, 03:27:00,VALID,915.828,VALID,0,VALID,100,VALID,0.0169808,VALID,19.7035,VALID,202,VALID,0.336124,
2003-11-09, 03:28:00,VALID,915.84,VALID,0,VALID,100,VALID,0,VALID,19.7072,VALID,193,VALID,0.553646,
2003-11-09, 03:29:00,VALID,915.841,VALID,0,VALID,100,VALID,0.0339617,VALID,19.6846,VALID,203,VALID,0.577939,
2003-11-09, 03:30:00,VALID,915.831,VALID,0,VALID,100,VALID,-0.0169808,VALID,19.6881,VALID,215,VALID,0.442406,
2003-11-09, 03:31:00,VALID,915.845,VALID,0,VALID,100,VALID,0,VALID,19.6751,VALID,199,VALID,0.691707,
2003-11-09, 03:32:00,VALID,915.824,VALID,0,VALID,100,VALID,0,VALID,19.6719,VALID,157,VALID,0.524479,
2003-11-09, 03:33:00,VALID,915.812,VALID,0,VALID,100,VALID,0,VALID,19.6555,VALID,177,VALID,0.64826,
2003-11-09, 03:34:00,VALID,915.791,VALID,0,VALID,100,VALID,0.0169808,VALID,19.6359,VALID,189,VALID,0.34375,
2003-11-09, 03:35:00,VALID,915.785,VALID,0,VALID,100,VALID,0.0169808,VALID,19.6493,VALID,217,VALID,0.418064,
2003-11-09, 03:36:00,VALID,915.78,VALID,0,VALID,100,VALID,0,VALID,19.6394,VALID,219,VALID,0.251116,
2003-11-09, 03:37:00,VALID,915.778,VALID,0,VALID,100,VALID,0,VALID,19.6366,VALID,219,VALID,0.185138,
2003-11-09, 03:38:00,VALID,915.767,VALID,0,VALID,100,VALID,0,VALID,19.6399,VALID,219,VALID,0.0820313,
2003-11-09, 03:39:00,VALID,915.77,VALID,0,VALID,100,VALID,0,VALID,19.6332,VALID,219,VALID,0.0470567,
2003-11-09, 03:40:00,VALID,915.768,VALID,0,VALID,100,VALID,0.0339617,VALID,19.617,VALID,219,VALID,0.197311,
2003-11-09, 03:41:00,VALID,915.765,VALID,0,VALID,100,VALID,0.0169808,VALID,19.617,VALID,219,VALID,0.0216206,
2003-11-09, 03:42:00,VALID,915.762,VALID,0,VALID,100,VALID,0,VALID,19.6302,VALID,219,VALID,0.0763081,
2003-11-09, 03:43:00,VALID,915.744,VALID,0,VALID,100,VALID,0,VALID,19.6135,VALID,227,VALID,0.414608,
2003-11-09, 03:44:00,VALID,915.728,VALID,0,VALID,100,VALID,0.0169808,VALID,19.6041,VALID,195,VALID,0.138672,
2003-11-09, 03:45:00,VALID,915.723,VALID,0,VALID,100,VALID,0,VALID,19.623,VALID,202,VALID,0.148828,
2003-11-09, 03:46:00,VALID,915.711,VALID,0,VALID,100,VALID,0.0169808,VALID,19.6366,VALID,217,VALID,0.309048,
2003-11-09, 03:47:00,VALID,915.71,VALID,0,VALID,100,VALID,0,VALID,19.6262,VALID,219,VALID,0.535442,
2003-11-09, 03:48:00,VALID,915.712,VALID,0,VALID,100,VALID,0,VALID,19.6332,VALID,208,VALID,0.375347,